Location: Bacharowice
(49.9333°N, 19.5833°E)
Time: 09:00:27
(UTC+00:00)

EO 1 Del DPAF - Pass Details

Date: 11 May 2021
Orbit: 505 x 510 km, 98.0° (Epoch: 21 June)

Event Time Altitude Azimuth Distance (km) Brightness Sun altitude
Rises 22:32:18 0° 22° (NNE) 2,630 7.9 -21.9°
Reaches altitude 10° 22:34:34 10° 32° (NNE) 1,738 6.6 -21.9°
Enters shadow 22:37:46 32° 91° (E) 896 4.3 -21.9°
